FW7745 Weather Reports


Display with metric or nautical units.
time (UTC)temp
F
wind
direction
speed
MPH
gust
MPH
rain 1hr
in
rain 24hr
in
rain mn
in
humidity
%
barometer
mb
20260507120814 56 359 4.0 6.0 0.00 0.07 0.07 70 1014.8
20260507120310 56 279 1.0 1.0 0.00 0.07 0.07 72 1014.8
20260507115807 56 33 2.0 5.0 0.00 0.07 0.07 74 1014.5
20260507115306 56 292 3.0 3.0 0.00 0.07 0.07 76 1014.4
20260507114759 56 329 1.0 1.0 0.00 0.07 0.07 81 1014.7
20260507114256 56 242 0.0 0.0 0.00 0.07 0.07 83 1014.3
20260507113754 56 293 0.0 1.0 0.00 0.07 0.07 84 1014.3
20260507113250 56 299 2.0 3.0 0.00 0.07 0.07 84 1014.5
20260507112748 56 325 1.0 1.0 0.00 0.07 0.07 84 1014.4
20260507112244 56 297 1.0 1.0 0.00 0.07 0.07 84 1014.4
20260507111743 56 18 2.0 2.0 0.00 0.07 0.07 84 1014.1
20260507111239 56 324 2.0 2.0 0.00 0.07 0.07 84 1014.4
20260507110735 55 8 1.0 1.0 0.00 0.07 0.07 84 1014.2
20260507110232 55 181 1.0 1.0 0.00 0.07 0.07 84 1014.3
20260507105728 55 32 2.0 3.0 0.00 0.07 0.07 84 1014.3
20260507105224 55 286 0.0 0.0 0.00 0.07 0.07 84 1014.1
20260507104722 55 13 0.0 0.0 0.00 0.07 0.07 85 1014.0
20260507104218 55 330 2.0 2.0 0.00 0.07 0.07 85 1014.1
20260507103714 55 292 1.0 1.0 0.00 0.07 0.07 86 1014.1
20260507103211 55 302 0.0 0.0 0.00 0.07 0.07 86 1014.0
20260507102707 55 271 0.0 0.0 0.00 0.07 0.07 86 1013.9
20260507102204 55 252 0.0 1.0 0.00 0.07 0.07 86 1013.9
20260507101700 55 180 0.0 1.0 0.00 0.07 0.07 86 1014.1
20260507101155 55 310 1.0 1.0 0.00 0.07 0.07 86 1013.8
20260507100653 55 304 0.0 1.0 0.00 0.07 0.07 86 1013.8
20260507100151 55 358 2.0 2.0 0.00 0.07 0.07 86 1013.4
20260507095649 55 297 0.0 0.0 0.00 0.07 0.07 86 1013.6
20260507095145 55 347 0.0 0.0 0.00 0.07 0.07 86 1013.6
20260507094642 55 324 0.0 1.0 0.00 0.07 0.07 86 1013.6
20260507094138 55 296 2.0 2.0 0.00 0.07 0.07 86 1013.6
20260507093636 55 0 1.0 1.0 0.00 0.07 0.07 87 1013.6
20260507093135 55 352 2.0 2.0 0.00 0.07 0.07 87 1013.5
20260507092631 55 268 0.0 0.0 0.00 0.07 0.07 87 1013.3
20260507092127 55 269 0.0 0.0 0.00 0.07 0.07 88 1013.4
20260507091624 55 329 1.0 1.0 0.00 0.07 0.07 88 1013.5
20260507091120 56 308 0.0 1.0 0.00 0.07 0.07 88 1013.7
20260507090616 55 296 1.0 1.0 0.00 0.07 0.07 88 1013.7
20260507090113 56 344 3.0 5.0 0.00 0.07 0.07 88 1013.6
20260507085610 56 287 0.0 0.0 0.00 0.07 0.07 87 1013.6
20260507085107 55 0 2.0 2.0 0.00 0.07 0.07 87 1013.5
20260507084604 56 311 1.0 2.0 0.00 0.07 0.07 87 1013.3
20260507084101 56 347 1.0 2.0 0.00 0.07 0.07 87 1013.4
20260507083557 55 11 3.0 5.0 0.00 0.07 0.07 88 1013.6
20260507083054 55 346 2.0 3.0 0.00 0.07 0.07 90 1013.6
20260507082550 56 288 0.0 0.0 0.00 0.07 0.07 91 1013.1
20260507082047 56 323 2.0 3.0 0.00 0.07 0.07 91 1013.3
20260507081543 56 298 0.0 0.0 0.00 0.07 0.07 91 1013.1
20260507081040 56 296 1.0 1.0 0.07 0.07 0.07 91 1013.2
20260507080536 56 277 0.0 0.0 0.07 0.07 0.07 90 1012.7
20260507080032 57 290 2.0 3.0 0.00 0.06 0.06 90 1012.8
20260507075527 57 358 0.0 1.0 0.05 0.06 0.06 89 1012.8
20260507075024 57 14 1.0 1.0 0.05 0.06 0.06 88 1012.7
20260507074521 57 327 3.0 7.0 0.00 0.05 0.05 88 1012.7
20260507074020 57 284 1.0 1.0 0.00 0.05 0.05 88 1012.6
20260507073515 57 337 5.0 7.0 0.00 0.05 0.05 89 1012.5
20260507073012 57 333 0.0 0.0 0.00 0.05 0.05 89 1012.3
20260507072510 58 331 0.0 0.0 0.00 0.05 0.05 90 1012.5
20260507072007 58 324 3.0 5.0 0.00 0.05 0.05 90 1012.7
20260507071504 57 347 0.0 1.0 0.00 0.05 0.05 91 1012.0
20260507071000 57 336 0.0 1.0 0.00 0.05 0.05 92 1012.3
20260507070458 57 275 1.0 2.0 0.00 0.05 0.05 93 1012.5
20260507065954 57 306 0.0 1.0 0.00 0.05 0.05 93 1012.5
20260507065451 57 335 1.0 2.0 0.00 0.05 0.05 93 1012.4
20260507064948 57 16 0.0 1.0 0.00 0.05 0.05 94 1012.6
20260507064446 58 286 2.0 2.0 0.00 0.05 0.05 94 1012.6
20260507063944 58 329 1.0 1.0 0.00 0.05 0.05 94 1012.6
20260507063440 58 310 0.0 1.0 0.00 0.05 0.05 94 1012.5
20260507062938 58 306 1.0 2.0 0.00 0.05 0.05 94 1012.6
20260507062435 58 317 2.0 2.0 0.00 0.05 0.05 94 1012.5
20260507061932 58 6 0.0 1.0 0.00 0.05 0.05 93 1012.1
20260507061430 58 320 1.0 2.0 0.00 0.05 0.05 93 1012.2
20260507060928 58 15 3.0 5.0 0.00 0.05 0.05 93 1012.3
20260507060425 58 289 2.0 2.0 0.00 0.05 0.05 92 1012.1
20260507055921 58 7 5.0 8.0 0.00 0.05 0.05 92 1012.3
20260507055417 58 321 4.0 5.0 0.00 0.05 0.05 92 1012.4
20260507054914 58 349 3.0 6.0 0.00 0.05 0.05 91 1012.4
20260507054410 59 320 6.0 8.0 0.00 0.05 0.05 91 1012.3
20260507053908 59 333 4.0 6.0 0.00 0.05 0.05 91 1012.5
20260507053405 59 320 2.0 3.0 0.00 0.05 0.05 92 1012.6
20260507052904 59 344 1.0 2.0 0.00 0.05 0.05 91 1012.4
20260507052400 59 299 0.0 0.0 0.00 0.05 0.05 91 1012.1
20260507051857 59 351 0.0 1.0 0.00 0.05 0.05 91 1012.2
20260507051355 59 327 1.0 2.0 0.00 0.05 0.05 90 1012.3
20260507050851 59 307 0.0 0.0 0.07 0.05 0.05 90 1012.8
20260507050348 59 340 3.0 3.0 0.07 0.05 0.05 89 1012.7
20260507045845 60 3 0.0 1.0 0.05 0.04 0.04 88 1012.7
20260507045341 60 260 0.0 0.0 0.05 0.04 0.04 87 1012.6
20260507044839 60 280 3.0 5.0 0.12 0.04 0.04 85 1013.1
20260507044335 61 312 3.0 3.0 0.12 0.03 0.03 83 1012.3
20260507043831 62 332 1.0 2.0 0.12 0.02 0.02 81 1012.5
20260507043328 62 280 1.0 2.0 0.07 0.01 0.01 80 1012.5
20260507042824 62 346 2.0 2.0 0.00 0.00 0.00 80 1012.7
20260507042320 62 313 1.0 1.0 0.00 0.00 0.00 84 1012.4
20260507041817 62 297 1.0 1.0 0.00 0.00 0.00 86 1012.6
20260507041313 62 299 1.0 1.0 0.00 0.00 0.00 86 1012.4
20260507040811 62 317 1.0 2.0 0.00 0.00 0.00 86 1012.3
20260507040307 63 317 1.0 1.0 0.00 0.00 0.00 86 1012.3
20260507035803 63 355 3.0 3.0 0.00 0.22 0.22 84 1012.2
20260507035258 64 319 1.0 2.0 0.00 0.22 0.22 81 1011.9
20260507034756 64 308 4.0 6.0 0.00 0.22 0.22 79 1012.2
20260507034253 65 309 5.0 13.0 0.00 0.22 0.22 77 1011.9
20260507033751 65 357 2.0 3.0 0.00 0.22 0.22 76 1012.1
20260507033249 65 340 1.0 2.0 0.00 0.22 0.22 76 1012.0
20260507032745 66 340 5.0 6.0 0.00 0.22 0.22 75 1012.1
20260507032241 66 4 6.0 9.0 0.00 0.22 0.22 75 1011.9
20260507031738 66 0 5.0 7.0 0.00 0.22 0.22 75 1011.8
20260507031235 65 342 2.0 3.0 0.00 0.22 0.22 75 1011.8
20260507030732 65 252 4.0 7.0 0.00 0.22 0.22 77 1011.5
20260507030229 66 0 3.0 5.0 0.00 0.22 0.22 79 1011.6
20260507025726 66 314 2.0 3.0 0.00 0.22 0.22 79 1011.6
20260507025223 66 356 6.0 9.0 0.00 0.22 0.22 79 1011.7
20260507024722 66 40 1.0 2.0 0.00 0.22 0.22 79 1011.7
20260507024218 66 304 7.0 7.0 0.00 0.22 0.22 79 1011.5
20260507023714 66 335 3.0 5.0 0.00 0.22 0.22 81 1011.4
20260507023211 67 35 2.0 2.0 0.00 0.22 0.22 82 1010.9
20260507022708 67 313 2.0 3.0 0.00 0.22 0.22 83 1011.1
20260507022204 67 287 4.0 5.0 0.00 0.22 0.22 84 1011.2
20260507021701 67 314 3.0 5.0 0.00 0.22 0.22 85 1011.3
20260507021155 68 323 2.0 2.0 0.00 0.22 0.22 86 1011.1
20260507020655 69 33 1.0 2.0 0.00 0.22 0.22 84 1010.9
20260507020150 69 330 0.0 0.0 0.00 0.22 0.22 83 1010.6
20260507015649 69 269 0.0 0.0 0.00 0.22 0.22 83 1010.8
20260507015146 69 278 0.0 0.0 0.00 0.22 0.22 83 1010.9
20260507014642 69 287 0.0 0.0 0.00 0.22 0.22 83 1010.6
20260507014138 69 254 0.0 1.0 0.00 0.22 0.22 82 1010.8
20260507013635 69 128 1.0 1.0 0.00 0.22 0.22 82 1011.2
20260507013132 69 168 1.0 1.0 0.00 0.22 0.22 82 1011.2
20260507012630 69 200 2.0 2.0 0.00 0.22 0.22 82 1011.1
20260507012125 69 207 1.0 2.0 0.00 0.22 0.22 82 1010.9
20260507011624 70 222 1.0 1.0 0.00 0.22 0.22 82 1011.2
20260507011119 70 198 1.0 1.0 0.00 0.22 0.22 82 1011.1
20260507010614 70 196 1.0 2.0 0.00 0.22 0.22 81 1011.2
20260507010110 70 237 2.0 2.0 0.00 0.22 0.22 81 1011.3
20260507005608 70 278 0.0 0.0 0.00 0.22 0.22 81 1011.1
20260507005104 70 337 0.0 1.0 0.00 0.22 0.22 81 1011.2
20260507004601 70 180 4.0 5.0 0.00 0.22 0.22 81 1010.9
20260507004058 70 128 1.0 2.0 0.00 0.22 0.22 81 1010.9
20260507003554 70 157 0.0 1.0 0.00 0.22 0.22 81 1010.6
20260507003049 70 223 3.0 3.0 0.00 0.22 0.22 81 1010.7
20260507002546 70 188 1.0 2.0 0.00 0.22 0.22 80 1010.7
20260507002042 70 185 2.0 2.0 0.00 0.22 0.22 80 1010.6
20260507001539 70 184 3.0 3.0 0.00 0.22 0.22 80 1010.8
20260507001036 70 168 1.0 1.0 0.00 0.22 0.22 80 1010.6
20260507000532 70 160 1.0 1.0 0.00 0.22 0.22 80 1010.6
20260507000028 70 265 1.0 1.0 0.00 0.22 0.22 80 1010.8
20260506235526 70 294 1.0 1.0 0.00 0.22 0.22 80 1010.3
20260506235021 70 255 0.0 1.0 0.00 0.22 0.22 80 1010.3
20260506234519 70 235 1.0 2.0 0.00 0.22 0.22 80 1010.5
20260506234016 70 173 0.0 0.0 0.00 0.22 0.22 80 1010.3
20260506233512 70 265 1.0 1.0 0.00 0.22 0.22 80 1010.0
20260506233010 70 252 2.0 2.0 0.00 0.22 0.22 80 1010.2
20260506232505 70 262 2.0 3.0 0.00 0.22 0.22 80 1010.2
20260506232001 70 216 0.0 0.0 0.00 0.22 0.22 80 1010.2
20260506231459 70 176 3.0 3.0 0.00 0.22 0.22 80 1010.1
20260506230956 70 206 3.0 5.0 0.00 0.22 0.22 80 1010.2
20260506230452 70 187 1.0 1.0 0.00 0.22 0.22 80 1009.9
20260506225949 70 225 3.0 5.0 0.00 0.22 0.22 79 1009.9
20260506225446 70 185 3.0 5.0 0.00 0.22 0.22 79 1009.8
20260506224943 70 164 5.0 6.0 0.00 0.22 0.22 79 1010.0
20260506224440 70 264 3.0 5.0 0.00 0.22 0.22 79 1010.1
20260506223937 70 196 5.0 7.0 0.00 0.22 0.22 80 1010.0
20260506223432 70 180 3.0 3.0 0.00 0.22 0.22 80 1010.0
20260506222930 70 242 1.0 1.0 0.00 0.22 0.22 80 1010.0
20260506222426 70 205 5.0 6.0 0.00 0.22 0.22 79 1009.8
20260506221923 70 213 5.0 7.0 0.00 0.22 0.22 79 1009.8
20260506221420 70 216 6.0 8.0 0.00 0.22 0.22 79 1010.0
20260506220918 70 185 7.0 8.0 0.00 0.22 0.22 79 1009.9
20260506220413 70 187 3.0 3.0 0.00 0.22 0.22 79 1009.8
20260506215910 70 170 4.0 6.0 0.00 0.22 0.22 79 1009.7
20260506215406 70 211 6.0 8.0 0.00 0.22 0.22 78 1010.0
20260506214902 70 222 4.0 5.0 0.00 0.22 0.22 78 1009.9
20260506214359 70 291 1.0 1.0 0.00 0.22 0.22 78 1009.9
20260506213857 70 247 7.0 9.0 0.00 0.22 0.22 78 1010.1
20260506213354 70 242 3.0 6.0 0.00 0.22 0.22 79 1009.9
20260506212852 70 124 4.0 7.0 0.00 0.22 0.22 79 1010.1
20260506212347 69 205 5.0 7.0 0.00 0.22 0.22 79 1009.9
20260506211842 70 205 6.0 7.0 0.00 0.22 0.22 78 1009.8
20260506211338 70 139 4.0 6.0 0.00 0.22 0.22 78 1009.9
20260506210836 71 156 5.0 7.0 0.00 0.22 0.22 78 1009.7
20260506210333 71 177 8.0 9.0 0.00 0.22 0.22 78 1009.7
20260506205830 70 166 6.0 7.0 0.00 0.22 0.22 79 1009.7
20260506205326 70 246 2.0 2.0 0.00 0.22 0.22 79 1009.9
20260506204822 70 283 6.0 8.0 0.00 0.22 0.22 78 1009.6
20260506204320 70 204 3.0 6.0 0.00 0.22 0.22 78 1009.6
20260506203818 70 193 4.0 7.0 0.00 0.22 0.22 79 1009.4
20260506203315 70 245 6.0 8.0 0.00 0.22 0.22 78 1009.2
20260506202811 70 289 4.0 5.0 0.00 0.22 0.22 78 1009.6
20260506202308 70 188 3.0 5.0 0.00 0.22 0.22 78 1009.6
20260506201805 70 271 7.0 14.0 0.00 0.22 0.22 79 1009.5
20260506201302 69 195 7.0 10.0 0.00 0.22 0.22 80 1009.5
20260506200759 69 218 7.0 10.0 0.00 0.22 0.22 79 1009.6
20260506200255 69 16 5.0 8.0 0.00 0.22 0.22 80 1009.8
20260506195751 69 191 6.0 9.0 0.00 0.22 0.22 80 1009.7
20260506195248 69 143 9.0 10.0 0.00 0.22 0.22 80 1009.7
20260506194746 69 159 9.0 13.0 0.00 0.22 0.22 80 1009.9
20260506194242 69 171 9.0 14.0 0.00 0.22 0.22 80 1009.8
20260506193740 69 184 11.0 16.0 0.00 0.22 0.22 80 1010.0
20260506193236 69 211 9.0 13.0 0.00 0.22 0.22 80 1009.5
20260506192732 69 155 7.0 8.0 0.00 0.22 0.22 80 1009.7
20260506192229 69 162 11.0 13.0 0.00 0.22 0.22 80 1009.7
20260506191726 69 154 2.0 3.0 0.00 0.22 0.22 80 1009.6
20260506191222 68 130 4.0 6.0 0.00 0.22 0.22 81 1009.8
20260506190720 68 112 3.0 5.0 0.00 0.22 0.22 81 1010.1
20260506190216 68 195 7.0 9.0 0.00 0.22 0.22 81 1010.3
20260506185714 68 176 10.0 14.0 0.00 0.22 0.22 81 1010.3
20260506185210 68 270 4.0 7.0 0.00 0.22 0.22 81 1010.1
20260506184708 68 221 8.0 13.0 0.00 0.22 0.22 81 1010.0
20260506184205 68 188 5.0 7.0 0.00 0.22 0.22 81 1010.3
20260506183701 68 166 5.0 8.0 0.00 0.22 0.22 81 1010.3
20260506183157 67 200 5.0 8.0 0.00 0.22 0.22 82 1010.3
20260506182654 68 182 7.0 9.0 0.00 0.22 0.22 81 1010.3
20260506182151 67 265 6.0 7.0 0.00 0.22 0.22 82 1010.5
20260506181644 67 195 11.0 13.0 0.00 0.22 0.22 81 1010.7
20260506181141 68 188 10.0 13.0 0.00 0.22 0.22 81 1010.3
20260506180637 68 122 5.0 7.0 0.00 0.22 0.22 81 1010.4
20260506180134 67 222 11.0 14.0 0.00 0.22 0.22 81 1010.7
20260506175630 68 189 6.0 7.0 0.00 0.22 0.22 80 1010.5
20260506175126 68 219 6.0 8.0 0.00 0.22 0.22 81 1010.5
20260506174626 67 232 3.0 6.0 0.00 0.22 0.22 82 1010.8
20260506174122 67 122 6.0 8.0 0.00 0.22 0.22 82 1010.7
20260506173619 67 208 4.0 7.0 0.00 0.22 0.22 83 1010.5
20260506173116 67 91 1.0 2.0 0.00 0.22 0.22 83 1010.8
20260506172613 66 186 5.0 9.0 0.00 0.22 0.22 84 1010.6
20260506172109 66 166 7.0 9.0 0.00 0.22 0.22 84 1010.8
20260506171608 66 169 11.0 14.0 0.00 0.22 0.22 84 1010.8
20260506171105 66 180 8.0 10.0 0.00 0.22 0.22 85 1010.8
20260506170602 66 284 2.0 5.0 0.00 0.22 0.22 85 1010.9
20260506170059 66 125 3.0 5.0 0.00 0.22 0.22 85 1010.9
20260506165558 66 197 10.0 11.0 0.00 0.22 0.22 85 1010.9
20260506165053 65 186 9.0 10.0 0.00 0.22 0.22 86 1010.7
20260506164551 65 191 8.0 10.0 0.00 0.22 0.22 86 1010.9
20260506164048 65 188 8.0 11.0 0.00 0.22 0.22 87 1011.2
20260506163543 65 113 11.0 14.0 0.00 0.22 0.22 88 1011.3
20260506163039 64 198 6.0 8.0 0.00 0.22 0.22 89 1011.2
20260506162536 64 270 10.0 14.0 0.00 0.22 0.22 90 1011.1
20260506162033 64 157 9.0 15.0 0.00 0.22 0.22 90 1011.3
20260506161531 63 223 11.0 14.0 0.00 0.22 0.22 91 1011.4
20260506161027 63 174 8.0 10.0 0.00 0.22 0.22 93 1011.4
20260506160525 63 189 10.0 13.0 0.00 0.22 0.22 94 1011.1
20260506160022 63 216 7.0 9.0 0.00 0.22 0.22 95 1011.5
20260506155520 63 201 9.0 13.0 0.00 0.22 0.22 95 1011.5
20260506153652 62 185 10.0 13.0 0.05 0.22 0.22 96 1011.8
20260506153149 62 232 5.0 7.0 0.05 0.22 0.22 96 1011.5
20260506152646 61 191 5.0 8.0 0.07 0.21 0.21 96 1011.4
20260506152143 61 203 9.0 10.0 0.12 0.21 0.21 96 1011.5
20260506151642 61 157 6.0 11.0 0.05 0.20 0.20 96 1011.8
20260506151138 61 182 6.0 7.0 0.00 0.19 0.19 96 1012.1
20260506150635 61 207 6.0 8.0 0.07 0.19 0.19 95 1012.0
20260506150132 61 144 7.0 13.0 0.07 0.19 0.19 95 1011.9
20260506145629 61 207 5.0 6.0 0.14 0.19 0.19 95 1012.3
20260506145126 61 203 3.0 6.0 0.07 0.18 0.18 95 1012.2
20260506144624 61 127 5.0 6.0 0.05 0.17 0.17 95 1012.3
20260506144120 61 182 1.0 2.0 0.05 0.17 0.17 95 1012.4
20260506143618 61 188 4.0 7.0 0.07 0.16 0.16 95 1012.4
20260506143116 61 204 4.0 6.0 0.12 0.16 0.16 95 1012.2
20260506142614 61 231 3.0 6.0 0.19 0.16 0.16 94 1012.4
20260506142112 61 200 4.0 6.0 0.19 0.14 0.14 94 1012.2
20260506141609 61 177 2.0 2.0 0.28 0.13 0.13 94 1012.0
20260506141107 61 157 4.0 7.0 0.24 0.11 0.11 93 1012.0
20260506140604 62 127 7.0 8.0 0.17 0.09 0.09 93 1012.6
20260506135558 62 175 3.0 3.0 0.14 0.06 0.06 92 1012.4
20260506135054 62 164 5.0 6.0 0.12 0.05 0.05 91 1012.4
20260506134551 62 177 7.0 11.0 0.12 0.04 0.04 90 1012.5
20260506134047 62 197 7.0 10.0 0.12 0.03 0.03 89 1012.6
20260506133544 63 193 5.0 7.0 0.05 0.02 0.02 87 1012.5
20260506133041 64 199 8.0 11.0 0.12 0.02 0.02 85 1012.7
20260506132538 64 181 3.0 3.0 0.07 0.01 0.01 84 1012.5
20260506132036 64 194 2.0 3.0 0.00 0.00 0.00 84 1012.6
20260506131532 64 210 9.0 11.0 0.00 0.00 0.00 83 1012.7
20260506131029 64 196 3.0 5.0 0.00 0.00 0.00 83 1012.4
20260506130526 64 196 4.0 6.0 0.00 0.00 0.00 82 1012.3
20260506130023 64 209 7.0 9.0 0.00 0.00 0.00 83 1012.3
20260506125521 64 134 3.0 6.0 0.00 0.00 0.00 82 1012.3
20260506125019 64 245 5.0 6.0 0.00 0.00 0.00 82 1012.0
20260506124517 64 158 7.0 10.0 0.00 0.00 0.00 83 1011.9
20260506124014 64 211 6.0 7.0 0.00 0.00 0.00 82 1011.6
20260506123512 64 249 3.0 5.0 0.00 0.00 0.00 83 1012.0
20260506123010 65 198 5.0 8.0 0.00 0.00 0.00 82 1012.1
20260506122506 65 185 3.0 5.0 0.00 0.00 0.00 81 1012.0
20260506122005 65 178 5.0 8.0 0.00 0.00 0.00 80 1012.2
20260506121501 66 219 7.0 10.0 0.00 0.00 0.00 78 1012.5